Regional Weather Roundup
Issued by NWS

Home | Current Version | Previous Version | Text Only | Print | Product List | Glossary On
Versions: 1 2 3 4 5 6 7 8 9 10 11 12 13 14 15 16 17 18 19 20 21 22 23 24 25 26 27 28 29 30 31 32 33 34 35 36 37 38 39 40 41 42 43 44 45 46 47 48 49 50
000
ASUS43 KFSD 231302
RWRSD

WEATHER ROUNDUP FOR SOUTH DAKOTA
NATIONAL WEATHER SERVICE SIOUX FALLS SD
700 AM CST THU FEB 23 2017

NOTE: "FAIR" INDICATES FEW OR NO CLOUDS BELOW 12,000 FEET WITH NO
SIGNIFICANT WEATHER AND/OR OBSTRUCTIONS TO VISIBILITY.


SDZ001>005-009-010-012>017-231400-
NORTHWEST AND NORTH CENTRAL SOUTH DAKOTA

CITY           SKY/WX    TMP DP  RH WIND       PRES   REMARKS
BUFFALO          N/A     28  26  92 NE13      29.84S WCI  17
FAITH            N/A     27  26  96 E12       29.91F WCI  17
MOBRIDGE       CLOUDY    27  23  85 N6        29.95R WCI  20
$$

SDZ012>016-024>037-041>051-057-063-072>074-231400-
SOUTHWEST AND SOUTH CENTRAL SOUTH DAKOTA

CITY           SKY/WX    TMP DP  RH WIND       PRES   REMARKS
RAPID CTY ARPT CLOUDY    27  26  96 NE14      29.85S FOG     WCI  16
PIERRE         CLOUDY    28  23  81 NE12      29.92F WCI  18
CUSTER         LGT SNOW  21  18  88 NE15      29.72S FOG     WCI   8
ELLSWORTH AFB  FRZ RAIN  28  28 100 NE8       29.85S FOG     WCI  19
PHILIP         CLOUDY    28  25  88 NE15      29.91R WCI  16
PINE RIDGE     LGT SNOW  27  26  96 NE13      29.80F FOG     WCI  16
SPEARFISH      MOCLDY    27  27 100 E10       29.84R FOG     WCI  17
WINNER         CLOUDY    30  24  78 NE17      29.88S WCI  18
$$

SDZ004>011-016>023-039-040-231400-
NORTHEAST SOUTH DAKOTA

CITY           SKY/WX    TMP DP  RH WIND       PRES   REMARKS
ABERDEEN       PTCLDY    26  22  84 N9        29.96F WCI  17
WATERTOWN      CLOUDY    27  22  81 NE14      29.91R WCI  16
BROOKINGS      CLOUDY    29  24  82 NE13      29.87F WCI  19
SISSETON         N/A     26  24  92 N10       29.97R WCI  16
$$

SDZ017-020-022-023-036>040-048>070-231400-
SOUTHEAST SOUTH DAKOTA

CITY           SKY/WX    TMP DP  RH WIND       PRES   REMARKS
SIOUX FALLS    CLOUDY    32  27  81 NE15      29.88R WCI  22
HURON          CLOUDY    28  25  88 NE13      29.92S WCI  17
CHAMBERLAIN    CLOUDY    30  27  86 N7        29.91S WCI  23
MITCHELL       MOCLDY    29  27  92 N7        29.93R WCI  22
YANKTON        CLOUDY    32  27  80 N9        29.87R WCI  24
$$

ABBREVIATIONS USED IN REMARKS
   TC - TEMPERATURE IN CELSIUS
  WCI - WIND CHILL INDEX
   HX - HEAT INDEX
  VSB - VISIBILITY





USA.gov is the U.S. government's official web portal to all federal, state and local government web resources and services.